Location: *
(52.2839°S, 177.1511°E)
Time: 01:31:45
(UTC+00:00)

Daily predictions for brighter satellites

Satellite Brightness Start Highest point End
(mag) Time Altitude Azimuth Time Altitude Azimuth Time Altitude Azimuth
Cosmos 1842 3.4 06:45:08 10° N 06:49:03 58° E 06:53:03 10° SSE
CZ-2C R/B 2.8 06:49:11 10° NNE 06:54:44 86° WNW 07:00:14 10° SSW
YAOGAN 6 3.4 06:51:10 10° S 06:54:49 58° WSW 06:58:20 10° NNW
Tsikada Rocket 4.3 06:50:32 10° NNW 06:56:56 82° W 07:03:29 10° S
Cosmos 1733 4.4 06:54:06 10° SSW 06:57:57 49° W 07:01:45 10° N
Meteor 2-10 4.4 06:52:39 10° S 06:58:23 59° ESE 07:04:05 10° NNE
Helios 1A Rocket 3.5 06:58:45 10° SSE 07:02:34 35° E 07:06:20 10° NNE
Cosmos 1953 3.2 06:59:10 10° S 07:02:58 32° ESE 07:06:41 10° NE
Okean O Rocket 2.1 06:58:42 10° S 07:03:12 70° WSW 07:07:40 10° NNW
SL-24 R/B - RUBIN 2 4.3 07:00:01 10° SW 07:04:08 41° SE 07:08:22 11° ENE
FALCON 9 DEB 3.0 07:01:37 10° WNW 07:04:55 69° NNE 07:08:15 10° ESE
CZ-2C R/B 4.0 07:01:34 10° SE 07:05:24 23° E 07:09:15 10° NE
Cosmos 1656 Rocket 4.0 07:00:25 10° SSW 07:05:48 48° SE 07:11:05 10° NE
Cosmos 1455 Rocket 3.1 07:06:25 10° S 07:11:01 84° E 07:15:32 10° NNE
Cosmos 1607 4.3 07:05:02 10° NW 07:11:19 71° SW 07:17:30 10° SE
ERBS 2.4 07:09:17 10° WSW 07:12:42 71° SSE 07:15:32 14° ENE
Cosmos 2219 Rocket 4.5 07:08:31 10° W 07:12:59 23° SW 07:17:29 10° SSE
Cosmos 1371 Rocket 4.0 07:07:52 10° SSW 07:13:13 85° ESE 07:18:34 10° NNE
Cosmos 1634 Rocket 4.4 07:06:58 10° SSW 07:13:15 70° W 07:19:25 10° N
CZ-4 R/B 2.0 07:11:10 10° SSE 07:15:05 36° E 07:19:00 10° NNE
Genesis I 3.3 07:12:08 10° SW 07:16:07 78° NW 07:20:02 10° NE
Lacrosse 5 2.6 07:11:10 10° WSW 07:16:11 52° NW 07:21:10 10° NE
H-2A R/B 4.3 07:14:31 11° NE 07:18:08 33° ESE 07:21:54 10° S
Cosmos 1943 Rocket 2.7 07:13:44 10° SW 07:19:23 63° WNW 07:25:00 10° NNE
FALCON 9 DEB 3.0 07:16:14 10° WNW 07:19:33 79° NNE 07:22:25 14° ESE
SeaSat 1 3.1 07:15:29 10° SE 07:20:01 34° ENE 07:24:31 10° N
Nadezhda 4 Rocket 4.5 07:16:02 10° NNE 07:21:48 39° E 07:27:39 10° SSE
EO 1 Delta rocket 4.0 07:18:08 10° NNE 07:22:43 56° ESE 07:27:29 10° S
Cosmos 2112 Rocket 4.1 07:18:12 10° N 07:23:30 60° ENE 07:28:51 10° SSE
Cosmos 1680 Rocket 3.5 07:19:12 10° NNW 07:24:31 70° ENE 07:29:54 10° SSE
GEOS 3 Rocket 3.7 07:20:03 10° SE 07:25:01 53° NE 07:29:59 10° NNW
Cosmos 1674 4.0 07:23:45 15° ENE 07:25:35 20° E 07:28:27 10° SE
Cosmos 1758 3.4 07:21:32 10° SSW 07:25:37 84° W 07:29:39 10° N
Cosmos 2056 Rocket 3.7 07:21:41 10° SSW 07:27:11 87° WNW 07:32:40 10° NNE
H-2A R/B 2.8 07:24:37 10° SE 07:28:56 27° E 07:33:09 10° NNE
Meteor 1-21 4.3 07:23:20 10° N 07:29:06 88° ENE 07:35:01 10° SSE
Cosmos 1420 Rocket 4.1 07:24:09 10° SSW 07:29:27 63° ESE 07:34:21 12° NE
ATLAS 5 CENTAUR R/B 2.6 07:24:07 10° SW 07:29:41 55° NW 07:34:23 10° NNE
Cosmos 1726 2.0 07:27:35 10° S 07:31:21 77° ESE 07:35:03 10° NNE
Cosmos 1263 4.5 07:28:23 10° N 07:32:04 83° W 07:35:16 10° S
FALCON 9 DEB 3.8 07:29:38 10° W 07:33:06 48° NNW 07:35:25 18° NE
Feng Yun 1-1 Rocket 4.2 07:28:19 10° SSE 07:33:52 86° ENE 07:39:18 10° NNW
HJ-1C 4.4 07:31:45 10° SE 07:34:41 26° E 07:36:07 19° NE
Cosmos 2237 Rocket 4.0 07:30:06 10° WNW 07:35:18 34° SW 07:40:33 10° SSE
CZ-2C R/B 4.0 07:31:35 10° NNE 07:36:24 78° WNW 07:41:18 10° SSW
ARGOS 4.1 07:32:13 10° SE 07:36:46 26° E 07:40:26 14° NE
SL-16 R/B 2.7 07:32:38 10° NW 07:38:18 65° SW 07:44:02 10° SSE
Cosmos 1975 Rocket 3.6 07:34:02 10° NNW 07:38:29 66° WSW 07:43:02 10° S
YAOGAN 1 2.7 07:35:38 10° SSE 07:39:58 52° E 07:44:15 10° N
Cosmos 371 Rocket 3.4 07:35:18 10° SSW 07:40:17 84° WNW 07:45:10 10° NNE
Cosmos 1452 Rocket 3.7 07:41:07 10° SSW 07:46:24 57° ESE 07:49:58 20° NE
Cosmos 332 Rocket 3.7 07:42:14 10° SSW 07:47:08 82° ESE 07:51:02 16° NNE
USA 281 4.2 07:42:21 10° SSE 07:48:44 51° SW 07:55:04 10° WNW
Cosmos 1908 3.5 07:45:04 10° S 07:48:59 49° ESE 07:51:08 23° NE
Cosmos 1300 4.2 07:46:54 10° SSE 07:49:54 21° ESE 07:50:20 20° ESE
Cosmos 1932 4.4 07:48:30 10° NNW 07:54:29 58° NE 08:00:34 10° SE
Meteor 1-16 Rocket 4.2 07:48:49 10° SSW 07:54:31 87° ESE 08:00:20 10° NNE
Cosmos 1939 Rocket 3.6 07:50:37 10° S 07:54:37 58° WSW 07:58:37 10° NNW
SL-4 R/B 3.0 07:51:57 10° W 07:55:01 28° NNW 07:56:35 20° NNE
Cosmos 1943 3.3 07:50:36 10° N 07:56:09 54° ENE 08:01:46 10° SE
Cosmos 1626 3.9 08:01:33 18° ESE 08:01:33 18° ESE 08:03:13 10° SE
FALCON 9 DEB 3.0 07:58:49 10° W 08:02:10 81° S 08:03:23 37° ESE
Cosmos 1241 Rocket 4.4 07:56:08 10° SW 08:02:28 88° SE 08:06:29 23° NE
Molniya-1 4.0 08:00:47 10° SSW 08:02:53 25° SSE 08:03:18 23° SE
Cosmos 1356 Rocket 3.3 07:59:24 10° SSW 08:03:35 82° ESE 08:06:05 23° NNE
Cosmos 1818 3.6 07:58:46 10° SW 08:04:12 76° NW 08:07:37 23° NNE
USA 267 3.6 08:03:54 18° E 08:08:52 64° S 08:15:24 10° WSW
Meteor 2-5 Rocket 4.3 08:07:43 22° NNE 08:11:02 40° E 08:16:35 10° SSE
FALCON 9 DEB 3.0 08:08:56 10° W 08:12:18 79° S 08:13:07 48° ESE
Cosmos 2369 Rocket 3.5 08:10:32 10° SW 08:15:41 37° WNW 08:20:48 10° N
KORONAS-FOTON 3.7 08:15:01 28° N 08:16:55 66° E 08:20:47 10° SSE
Okean-O 3.2 08:12:41 10° S 08:17:09 60° WSW 08:21:34 10° NNW
Cosmos 304 Rocket 3.9 08:13:38 10° SSW 08:18:33 76° WNW 08:21:18 26° NNE
Cosmos 1697 Rocket 4.4 08:14:33 10° SSW 08:18:48 21° SSE 08:21:28 15° ESE
Cosmos 1726 Rocket 3.9 08:17:05 10° S 08:21:31 48° ESE 08:22:23 42° ENE
Cosmos 1707 4.3 08:19:17 10° NW 08:22:58 37° WSW 08:26:44 10° S
Cosmos 1025 Rocket 3.7 08:18:42 10° NNW 08:23:04 58° WSW 08:27:27 10° S
Cosmos 2195 Rocket 4.5 08:18:21 15° NNE 08:23:19 58° E 08:29:26 10° SSE
Cosmos 1606 Rocket 3.6 08:20:10 10° S 08:24:42 63° ESE 08:25:53 45° NE
Cosmos 1603 3.7 08:19:09 10° NNW 08:24:49 88° WSW 08:30:35 10° SSE
Cosmos 2026 Rocket 4.1 08:22:06 23° NNE 08:25:56 53° E 08:31:58 10° SSE
Cosmos 1980 Rocket 4.2 08:22:32 10° SSW 08:26:14 17° SSE 08:29:22 12° ESE
Cosmos 1092 Rocket 4.0 08:22:57 10° N 08:29:18 71° E 08:35:43 10° SSE
SJ-6B 4.2 08:28:59 10° SSE 08:31:04 25° SE 08:31:04 25° SE
Cosmos 1953 4.2 08:35:40 10° SSW 08:39:18 30° W 08:42:54 10° NNW
FALCON 9 DEB 3.3 08:37:41 10° W 08:40:41 66° SW 08:40:41 66° SW
CSL-04 Rocket 3.7 08:38:33 10° SSE 08:43:56 78° WSW 08:49:17 10° NNW
CSL-04 Debris 4.4 08:39:47 10° SSE 08:45:20 74° WSW 08:50:48 10° NNW
CZ-2C R/B 3.5 08:40:55 10° S 08:45:40 57° WSW 08:50:28 10° NNW
SL-24 R/B - RUBIN 2 4.5 08:43:45 10° SW 08:47:57 43° NW 08:49:16 34° NNW
ERBS 4.1 08:45:52 10° WSW 08:48:28 25° NW 08:48:28 25° NW
Cosmos 1400 Rocket 3.7 08:45:03 10° S 08:48:00 35° SE 08:48:00 35° SE
CZ-4 R/B 3.4 08:46:20 10° S 08:50:01 30° WSW 08:53:44 10° NW
Cosmos 2228 3.2 08:45:32 10° SSW 08:50:02 75° W 08:51:05 51° NNW
Cosmos 1892 Rocket 4.2 08:51:27 42° ESE 08:51:27 42° ESE 08:54:58 10° SSE
Ariane Rocket 3.0 08:46:34 10° SSE 08:51:39 56° ENE 08:51:51 56° ENE
SL-14 R/B 3.8 08:55:36 50° SE 08:55:36 50° SE 08:58:50 10° SSE
FALCON 9 DEB 4.1 08:52:21 10° W 08:54:48 45° WSW 08:54:48 45° WSW
Cosmos 1455 4.2 08:53:22 10° SSE 08:55:10 19° SE 08:55:10 19° SE
SeaSat 1 3.3 08:52:52 10° SSE 08:57:42 51° SW 09:02:30 10° NW
Lacrosse 5 4.3 08:55:51 10° W 08:58:10 13° WNW 09:00:29 10° NNW
Cosmos 1674 4.0 08:58:27 18° NW 09:00:51 40° WSW 09:04:30 10° S
SAR-Lupe-2 4.2 09:04:29 56° SSW 09:04:29 56° SSW 09:07:28 10° SSW
IRS-1A Rocket 4.3 09:01:11 10° SSE 09:07:03 70° ENE 09:08:19 54° NNE
H-2A R/B 2.8 09:03:44 10° S 09:08:39 50° WSW 09:13:26 10° NW
Cosmos 292 Rocket 3.8 09:03:52 10° SSW 09:08:44 69° ESE 09:08:44 69° ESE
OBJECT-B 3.5 09:06:02 10° SSE 09:06:31 13° SSE 09:06:31 13° SSE
SL-08 RB Rocket 4.0 09:08:12 10° S 09:12:58 70° WSW 09:14:21 44° NW
Meteor 2-19 Rocket 4.4 09:13:32 59° ENE 09:13:51 60° E 09:19:56 10° SSE
Intercosmos 25 Rocket 4.3 09:06:24 10° N 09:14:14 85° W 09:18:57 10° S
Cosmos 1553 Rocket 3.9 09:09:52 10° S 09:16:06 85° W 09:17:45 52° N
ARGOS 3.6 09:12:03 10° S 09:17:26 60° WSW 09:21:58 14° NW
Cosmos 44 3.4 09:15:38 10° SW 09:19:57 63° S 09:19:57 63° S
Resurs 01 Rocket 3.4 09:18:45 10° SSE 09:20:37 23° SE 09:20:37 23° SE
Cosmos 1300 3.9 09:22:03 10° SSW 09:25:18 42° WSW 09:25:18 42° WSW
Cosmos 2058 Rocket 3.4 09:22:13 10° SSW 09:26:22 63° WSW 09:26:22 63° WSW
Cosmos 1048 Rocket 4.1 09:28:13 49° NW 09:29:42 76° WSW 09:35:03 10° SSE
Cosmos 1110 Rocket 4.4 09:24:43 10° SSW 09:29:55 54° WNW 09:30:28 51° NW
Cosmos 2266 Rocket 4.2 09:30:23 53° ESE 09:30:23 53° ESE 09:36:16 10° SSE
Cosmos 1331 Rocket 4.3 09:26:18 10° SSW 09:31:35 58° WNW 09:32:01 56° NW
Cosmos 494 Rocket 4.3 09:34:46 56° SE 09:34:46 56° SE 09:38:53 10° SSE
Cosmos 1626 3.7 09:36:02 34° SW 09:36:02 34° SW 09:38:56 10° S
Cosmos 1302 Rocket 4.0 09:32:12 10° SSW 09:37:12 79° SSW 09:37:12 79° SSW
MetOp-A 4.3 09:39:54 10° SSE 09:45:20 69° WSW 09:45:59 62° WNW
Meteor 1-24 Rocket 4.3 09:43:38 34° NW 09:46:12 59° WSW 09:52:14 10° S
Cosmos 2369 4.2 09:44:22 10° SSW 09:49:42 49° SE 09:49:42 49° SE
USA 267 3.1 09:51:14 75° NNE 09:51:48 81° NNW 09:58:28 10° WSW
SPOT 3 Rocket 4.0 09:52:20 10° SSE 09:56:31 57° SSE 09:56:31 57° SSE
Meteor 2-15 Rocket 4.5 09:52:03 10° SSW 09:58:11 70° W 09:58:29 69° WNW
Cosmos 1697 Rocket 3.0 09:58:11 10° SSW 10:03:12 60° SSE 10:03:12 60° SSE
Cosmos 1656 4.0 10:01:58 10° SSW 10:06:40 62° SW 10:06:40 62° SW
Meteor 2-10 Rocket 4.1 10:02:38 10° SSW 10:07:45 58° W 10:07:45 58° W
Cosmos 1980 Rocket 2.9 10:06:10 10° SSW 10:11:07 45° SSE 10:11:07 45° SSE
Cosmos 1655 Rocket 4.3 10:19:03 59° WNW 10:19:45 62° WSW 10:26:12 10° S
Thor Agena Rocket 4.3 10:21:54 50° SW 10:21:54 50° SW 10:25:50 10° SSW
Cosmos 2322 Rocket 3.9 10:17:34 10° SSW 10:22:01 23° SE 10:22:44 22° SE
NOSS 3-2 (A) 4.4 10:33:06 48° ESE 10:33:06 48° ESE 10:38:10 10° SE
SL-16 R/B 3.6 10:31:08 10° SSW 10:36:04 29° SE 10:36:04 29° SE
Cosmos 2082 Rocket 4.3 10:42:24 16° SE 10:42:24 16° SE 10:43:42 10° SE
OBJECT-B 4.4 10:39:33 10° SSW 10:39:42 11° SSW 10:39:42 11° SSW
Resurs 01 Rocket 3.7 10:55:31 10° S 10:58:12 25° SW 10:58:12 25° SW
NOSS 3-2 (C) 4.4 11:13:11 50° ESE 11:13:11 50° ESE 11:18:21 10° SE
COSMOS 2406 4.4 11:14:37 38° SSE 11:14:37 38° SSE 11:18:10 10° SSE
Resurs 1-4 Rocket 4.0 11:17:15 23° SE 11:17:15 23° SE 11:20:42 10° S
CENTAUR R/B 3.6 11:22:52 40° SE 11:22:52 40° SE 11:26:50 10° SE
Cosmos 1833 Rocket 4.1 11:26:04 33° SSE 11:26:04 33° SSE 11:29:08 10° SSE
Cosmos 2333 Rocket 4.3 11:23:43 10° SSW 11:28:00 21° SSE 11:29:50 18° SE
Terra 3.8 11:23:16 10° SSE 11:25:21 26° SSE 11:25:21 26° SSE
CZ-2D R/B 3.8 11:31:59 27° SE 11:31:59 27° SE 11:35:28 10° S
ATLAS 3B R/B 4.1 11:36:45 30° ESE 11:36:45 30° ESE 11:40:41 10° SE
Cosmos 2360 Rocket 3.5 11:39:56 10° SSW 11:44:15 35° SSE 11:44:15 35° SSE
